Regional Weather Roundup
Issued by NWS

Home | Current Version | Previous Version | Text Only | Print | Product List | Glossary Off
Versions: 1 2 3 4 5 6 7 8 9 10 11 12 13 14 15 16 17 18 19 20 21 22 23 24 25 26 27 28 29 30 31 32 33 34 35 36 37 38 39 40 41 42 43 44 45 46 47 48 49 50

000
ASUS45 KBOI 210410
RWRID
WEATHER ROUNDUP FOR IDAHO
NATIONAL WEATHER SERVICE BOISE ID
1000 PM MDT SAT SEP 20 2014

NOTE: "FAIR" INDICATES FEW OR NO CLOUDS BELOW 12000 FEET
WITH NO SIGNIFICANT WEATHER AND/OR OBSTRUCTIONS TO VISIBILITY

IDZ012-014-210500-
SOUTHWEST IDAHO


CITY           SKY/WX    TMP DP  RH WIND       PRES   REMARKS
BOISE          CLEAR     70  48  45 CALM      30.01S
CALDWELL       CLEAR     66  46  48 CALM      30.01S
MOUNTAIN HOME  CLEAR     69  43  40 NW3       30.02S
$$

IDZ016-017-210500-
SOUTHCENTRAL IDAHO


CITY           SKY/WX    TMP DP  RH WIND       PRES   REMARKS
BURLEY         PTCLDY    58  48  69 E3        30.09R
JEROME         PTCLDY    60  47  61 CALM      30.09S
TWIN FALLS     PTCLDY    64  42  44 SE9       30.09S
$$

IDZ019>023-210500-
SOUTHEAST IDAHO


CITY           SKY/WX    TMP DP  RH WIND       PRES   REMARKS
IDAHO FALLS    CLEAR     57  48  72 CALM      30.17R
POCATELLO      CLEAR     64  46  52 E6        30.13S
REXBURG        CLEAR     59  45  59 NE5       30.17S
$$

IDZ006-010-011-018-031-032-210500-
CENTRAL IDAHO MOUNTAINS


CITY           SKY/WX    TMP DP  RH WIND       PRES   REMARKS
MCCALL         CLEAR     59  41  51 CALM      30.14S
HAILEY         CLEAR     59  43  55 NW8       30.22R
STANLEY          N/A     53  36  52 S5        30.26R
SALMON         CLEAR     55  46  71 CALM      30.11R
CHALLIS        CLEAR     63  39  41 CALM      30.16R
$$

IDZ002-004-006-007-026-210500-
NORTHERN IDAHO


CITY           SKY/WX    TMP DP  RH WIND       PRES   REMARKS
LEWISTON       CLEAR     73  39  29 S7        29.97R
LOWELL           N/A     61  55  81 N3        30.03R
COEUR D`ALENE  CLEAR     61  45  55 NE7       30.06S
MULLAN PASS    CLEAR     59  35  40 SE10G18   30.27S
$$


USA.gov is the U.S. government's official web portal to all federal, state and local government web resources and services.